Date String (YYYY-MM-DD hh:mm:ss) UTC,Instrument flags,Ambient pressure (hPa),Sample flow (lpm),Bypass flow (lpm),Sample temperature (°C),Ambient temperature (°C),ASC tube jacket temperature (°C),LED temperature (°C),Box temperature (°C),Sample RH (%),Span deviation,Mass concentration (μg/m³),Mass concentration (μg/m³),Mass concentration (μg/m³)
DateTimeUTC,F1_M11,P_M11,Q1_M11,Q2_M11,T1_M11,T2_M11,T3_M11,T4_M11,T5_M11,U1_M11,ZSPAN_M11,X0_M11,X2_M11,X1_M11
2022-12-17 16:00:00,,0823.3,4.96,0.00,22.7,21.4,00.0,31.5,24.4,04.5,0000.0,0008.88,0003.32,0002.29
2022-12-17 16:01:00,,0823.3,5.04,0.00,22.7,21.4,00.0,31.5,24.4,04.6,0000.0,0008.56,0003.28,0002.25
2022-12-17 16:02:00,,0823.2,4.96,0.00,22.7,21.4,00.0,31.5,24.4,04.6,0000.0,0007.92,0003.24,0002.22
2022-12-17 16:03:00,,0823.3,5.04,0.00,22.7,21.3,00.0,31.4,24.4,04.6,0000.0,0007.78,0003.19,0002.19
2022-12-17 16:04:00,,0823.4,4.96,0.00,22.7,21.3,00.0,31.4,24.4,04.5,0000.0,0007.82,0003.15,0002.17
2022-12-17 16:05:00,,0823.4,5.03,0.00,22.7,21.3,00.0,31.4,24.4,04.9,0000.0,0008.19,0003.12,0002.16
2022-12-17 16:06:00,,0823.4,4.96,0.00,22.7,21.3,00.0,31.4,24.4,05.0,0000.0,0008.98,0003.13,0002.19
2022-12-17 16:07:00,,0823.4,5.03,0.00,22.6,21.3,00.0,31.4,24.3,04.9,0000.0,0009.42,0003.15,0002.21
2022-12-17 16:08:00,,0823.4,4.95,0.00,22.6,21.3,00.0,31.4,24.3,05.0,0000.0,0009.44,0003.16,0002.22
2022-12-17 16:09:00,,0823.4,5.02,0.00,22.6,21.2,00.0,31.4,24.4,04.9,0000.0,0008.84,0003.17,0002.26
2022-12-17 16:10:00,,0823.4,4.99,0.00,22.6,21.2,00.0,31.4,24.4,04.7,0000.0,0008.59,0003.21,0002.28
2022-12-17 16:11:00,,0823.4,5.02,0.00,22.6,21.2,00.0,31.4,24.4,04.8,0000.0,0008.36,0003.19,0002.30
2022-12-17 16:12:00,,0823.4,4.98,0.00,22.6,21.2,00.0,31.4,24.4,04.6,0000.0,0008.26,0003.18,0002.31
2022-12-17 16:13:00,,0823.4,5.02,0.00,22.6,21.2,00.0,31.4,24.4,04.6,0000.0,0008.22,0003.19,0002.32
2022-12-17 16:14:00,,0823.4,4.96,0.00,22.6,21.2,00.0,31.4,24.4,04.7,0000.0,0008.46,0003.21,0002.34
2022-12-17 16:15:00,,0823.4,4.96,0.00,22.6,21.3,00.0,31.4,24.4,04.8,0000.0,0008.66,0003.22,0002.34
2022-12-17 16:16:00,,0823.4,4.97,0.00,22.6,21.3,00.0,31.4,24.4,04.7,0000.0,0008.69,0003.25,0002.36
2022-12-17 16:17:00,,0823.5,5.03,0.00,22.6,21.3,00.0,31.4,24.4,04.8,0000.0,0008.13,0003.28,0002.38
2022-12-17 16:18:00,,0823.5,4.97,0.00,22.6,21.3,00.0,31.4,24.4,04.5,0000.0,0007.57,0003.26,0002.37
2022-12-17 16:19:00,,0823.4,5.03,0.00,22.6,21.3,00.0,31.4,24.4,04.6,0000.0,0006.67,0003.26,0002.37
2022-12-17 16:20:00,,0823.4,4.96,0.00,22.6,21.5,00.0,31.4,24.5,04.5,0000.0,0006.37,0003.20,0002.36
2022-12-17 16:21:00,,0823.5,5.05,0.00,22.7,22.4,00.0,31.4,24.7,04.5,0000.0,0007.30,0003.19,0002.36
2022-12-17 16:22:00,,0823.5,4.95,0.00,22.8,22.7,00.0,31.4,24.8,04.5,0000.0,0007.65,0003.22,0002.37
2022-12-17 16:23:00,,0823.4,5.04,0.00,22.8,22.4,00.0,31.5,24.8,04.4,0000.0,0007.67,0003.21,0002.38
2022-12-17 16:24:00,,0823.5,4.97,0.00,22.8,22.2,00.0,31.5,24.8,04.1,0000.0,0007.77,0003.23,0002.37
2022-12-17 16:25:00,,0823.5,4.97,0.00,22.8,22.1,00.0,31.5,24.7,04.1,0000.0,0008.04,0003.21,0002.36
2022-12-17 16:26:00,,0823.6,5.04,0.00,22.8,22.0,00.0,31.5,24.7,04.6,0000.0,0008.87,0003.26,0002.41
2022-12-17 16:27:00,,0823.6,4.97,0.00,22.8,21.9,00.0,31.5,24.7,04.2,0000.0,0008.60,0003.25,0002.42
2022-12-17 16:28:00,,0823.7,5.05,0.00,22.8,21.8,00.0,31.5,24.7,04.3,0000.0,0009.03,0003.23,0002.39
2022-12-17 16:29:00,,0823.7,4.97,0.00,22.8,21.7,00.0,31.5,24.7,04.7,0000.0,0009.22,0003.24,0002.41
2022-12-17 16:30:00,,0823.7,5.03,0.00,22.8,21.7,00.0,31.5,24.7,04.5,0000.0,0009.55,0003.22,0002.41
2022-12-17 16:31:00,,0823.7,4.97,0.00,22.8,21.6,00.0,31.6,24.6,04.6,0000.0,0010.36,0003.27,0002.43
2022-12-17 16:32:00,,0823.7,5.04,0.00,22.8,21.6,00.0,31.6,24.6,04.9,0000.0,0010.40,0003.33,0002.47
2022-12-17 16:33:00,,0823.7,4.97,0.00,22.8,21.5,00.0,31.6,24.6,05.1,0000.0,0010.39,0003.36,0002.55
2022-12-17 16:34:00,,0823.7,5.02,0.00,22.8,21.5,00.0,31.6,24.6,05.3,0000.0,0010.61,0003.44,0002.61
2022-12-17 16:35:00,,0823.7,4.96,0.00,22.8,21.5,00.0,31.6,24.6,05.0,0000.0,0011.81,0003.52,0002.71
2022-12-17 16:36:00,,0823.7,5.02,0.00,22.8,21.4,00.0,31.6,24.6,05.1,0000.0,0012.16,0003.64,0002.82
2022-12-17 16:37:00,,0823.7,4.96,0.00,22.8,21.4,00.0,31.6,24.6,04.8,0000.0,0011.51,0003.68,0002.87
2022-12-17 16:38:00,,0823.8,5.03,0.00,22.8,21.4,00.0,31.6,24.6,04.5,0000.0,0012.19,0003.70,0002.90
2022-12-17 16:39:00,,0823.8,4.97,0.00,22.8,21.5,00.0,31.6,24.6,04.7,0000.0,0012.37,0003.77,0002.97
2022-12-17 16:40:00,,0823.9,5.04,0.00,22.8,21.5,00.0,31.6,24.6,04.4,0000.0,0012.94,0003.82,0003.01
2022-12-17 16:41:00,,0823.9,4.96,0.00,22.8,21.5,00.0,31.6,24.6,04.6,0000.0,0012.83,0003.85,0003.03
2022-12-17 16:42:00,,0823.9,5.03,0.00,22.8,21.5,00.0,31.6,24.6,05.0,0000.0,0012.48,0003.87,0003.09
2022-12-17 16:43:00,,0823.9,4.96,0.00,22.8,21.5,00.0,31.6,24.6,05.4,0000.0,0012.40,0003.95,0003.16
2022-12-17 16:44:00,,0823.9,5.03,0.00,22.8,21.5,00.0,31.6,24.6,05.4,0000.0,0012.14,0004.00,0003.20
2022-12-17 16:45:00,,0823.9,4.96,0.00,22.8,21.5,00.0,31.6,24.6,05.1,0000.0,0012.43,0004.00,0003.22
2022-12-17 16:46:00,,0824.0,5.04,0.00,22.8,21.6,00.0,31.6,24.6,05.1,0000.0,0011.63,0003.97,0003.24
2022-12-17 16:47:00,,0824.0,4.98,0.00,22.8,22.4,00.0,31.5,24.8,04.9,0000.0,0011.31,0003.96,0003.23
2022-12-17 16:48:00,,0824.0,4.99,0.00,22.9,22.8,00.0,31.6,25.0,05.1,0000.0,0011.22,0003.97,0003.25
2022-12-17 16:49:00,,0824.0,5.04,0.00,23.0,22.6,00.0,31.6,25.0,05.2,0000.0,0010.59,0004.06,0003.32
2022-12-17 16:50:00,,0824.0,4.97,0.00,23.0,22.5,00.0,31.7,25.0,05.1,0000.0,0010.83,0004.16,0003.35
2022-12-17 16:51:00,,0824.0,5.02,0.00,23.0,22.3,00.0,31.7,24.9,05.2,0000.0,0011.21,0004.20,0003.42
2022-12-17 16:52:00,,0824.0,4.99,0.00,23.0,22.2,00.0,31.7,24.9,05.5,0000.0,0011.65,0004.28,0003.51
2022-12-17 16:53:00,,0823.9,5.02,0.00,23.0,22.1,00.0,31.7,24.9,05.3,0000.0,0011.87,0004.36,0003.56
2022-12-17 16:54:00,,0824.0,5.00,0.00,23.0,22.0,00.0,31.7,24.9,04.9,0000.0,0011.54,0004.30,0003.55
2022-12-17 16:55:00,,0824.0,4.98,0.00,23.0,22.0,00.0,31.7,24.9,04.4,0000.0,0011.21,0004.18,0003.50
2022-12-17 16:56:00,,0824.0,5.01,0.00,23.0,22.0,00.0,31.7,24.9,04.1,0000.0,0010.76,0004.13,0003.43
2022-12-17 16:57:00,,0824.0,4.98,0.00,23.0,22.0,00.0,31.7,24.9,04.5,0000.0,0010.59,0004.13,0003.40
2022-12-17 16:58:00,,0823.9,5.00,0.00,23.0,21.9,00.0,31.8,24.9,04.7,0000.0,0010.62,0004.11,0003.40
2022-12-17 16:59:00,,0824.0,5.01,0.00,23.0,21.9,00.0,31.8,24.9,04.6,0000.0,0010.70,0004.09,0003.38
